Date,TemperatureHighF,TemperatureAvgF,TemperatureLowF,DewpointHighF,DewpointAvgF,DewpointLowF,HumidityHigh,HumidityAvg,HumidityLow,PressureMaxIn,PressureMinIn,WindSpeedMaxMPH,WindSpeedAvgMPH,GustSpeedMaxMPH,PrecipitationSumIn
2013-10-1,83.1,61.8,46.3,59.5,52.4,46.7,96,79,42,29.73,29.53,5,1,12,0.00
2013-10-2,88.4,67.9,53.3,60.7,55.0,48.0,95,69,43,29.61,29.45,8,2,15,0.00
2013-10-3,86.9,63.4,50.3,51.9,48.7,43.6,91,65,36,29.79,29.61,9,2,15,0.00
2013-10-4,78.6,60.2,49.1,56.6,50.3,42.7,94,73,47,29.83,29.73,5,1,11,0.00
2013-10-5,71.0,56.6,50.4,51.0,45.8,41.8,92,69,43,29.91,29.79,4,1,8,0.00
2013-10-6,65.1,53.1,45.1,47.1,39.7,35.2,95,65,50,30.02,29.90,7,2,16,0.00
2013-10-7,68.1,56.1,48.1,66.6,55.0,47.1,96,95,92,29.96,29.49,13,2,36,0.80
2013-10-8,68.1,55.8,44.6,61.9,43.1,37.0,96,65,47,30.12,29.55,13,5,22,0.00
2013-10-9,73.2,51.9,39.5,49.4,41.0,-99.9,96,74,42,30.22,30.09,4,-10,10,0.00
2013-10-10,70.7,52.1,40.7,51.0,46.0,40.5,96,82,45,30.09,29.93,4,1,9,0.00
2013-10-11,73.8,57.9,44.6,58.6,50.7,44.6,96,81,49,29.94,29.84,4,1,7,0.00
2013-10-12,58.2,54.6,51.7,53.2,51.9,50.9,96,90,83,30.16,29.94,4,1,9,0.00
2013-10-13,60.6,54.6,50.0,51.8,49.8,48.1,95,87,74,30.21,30.11,4,2,8,0.00
2013-10-14,72.4,57.8,49.6,52.6,49.1,46.2,93,78,56,30.11,29.94,4,2,10,0.00
2013-10-15,70.9,57.4,46.1,56.5,50.9,46.5,96,82,60,30.04,29.91,4,1,8,0.00
2013-10-16,67.7,56.6,52.0,53.3,51.1,45.2,95,84,55,29.95,29.64,5,2,10,0.00
2013-10-17,74.2,58.6,48.2,57.9,52.2,47.4,96,83,48,29.65,29.46,4,2,11,0.00
2013-10-18,70.6,56.5,47.7,56.5,48.5,42.7,96,77,54,29.55,29.35,12,3,24,0.24
2013-10-19,71.6,56.9,42.9,47.8,43.2,39.1,88,65,43,29.65,29.49,7,2,14,0.00
2013-10-20,71.2,54.7,43.1,51.6,41.1,31.0,95,64,34,29.67,29.39,12,4,22,0.00
2013-10-21,67.9,52.1,38.4,46.0,39.5,34.4,88,66,41,29.79,29.66,6,2,13,0.00
2013-10-22,66.3,50.9,40.2,52.7,46.8,39.2,95,85,72,29.70,29.42,10,2,22,0.14
2013-10-23,66.8,47.8,36.6,42.5,36.1,31.1,96,70,42,29.51,29.30,6,1,11,0.00
2013-10-24,57.3,44.4,33.1,34.8,31.2,27.3,89,62,45,29.51,29.33,11,4,24,0.00
2013-10-25,58.6,44.6,37.3,34.2,30.6,26.5,73,59,47,29.78,29.51,10,5,19,0.00
2013-10-26,51.9,42.0,33.7,37.0,31.5,27.0,76,67,58,29.80,29.57,8,2,19,0.00
2013-10-27,62.7,46.5,41.0,42.2,35.2,28.0,85,66,49,29.70,29.50,12,3,19,0.00
2013-10-28,58.4,41.2,32.8,38.7,30.9,22.8,83,67,47,30.06,29.71,14,3,30,0.00
2013-10-29,55.9,37.5,26.2,30.6,25.1,16.1,94,66,30,30.17,30.06,4,1,9,0.00
2013-10-30,54.3,37.4,27.6,32.9,27.4,22.3,91,68,38,30.07,29.87,8,2,15,0.00
2013-10-31,49.3,40.2,29.7,48.4,38.0,29.7,96,92,77,29.97,29.51,2,0,6,0.56